{"data":{"norad_id":64216,"epoch":"2026-09-20T11:22:41.536704Z","epoch_age_seconds":139885,"freshness":"FRESH","line1":"1 64216U 25117P   26263.47409186  .00024266  00000+0  72691-3 0  9990","line2":"2 64216  53.1570 213.7400 0001739  74.7950 285.3245 15.34403606 74395","mean_motion":15.34403606,"eccentricity":0.0001739,"inclination_deg":53.157,"raan_deg":213.74,"arg_perigee_deg":74.795,"mean_anomaly_deg":285.3245,"bstar":0.00072691,"rev_number":7439,"period_min":93.847537529836,"perigee_km":461.50290218221,"apogee_km":463.88214269012,"semimajor_km":6840.8295224362,"source":"CELESTRAK","updated_at":"2026-09-21T09:00:35.272724Z"}}